Aberdeen / Amory, MS

9:42 PM CDT on July 25, 2017 (GMT -0500)
Aberdeen / Amory

Weather History for KM40 - March, 2013

Change the Weather History Date:

Tuesday, March 5, 2013

  Actual Average (KCBM) Record (KCBM)
Temperature  
Mean Temperature 48 °F -  
Max Temperature 62 °F 60 °F 82 °F (1997)
Min Temperature 35 °F 40 °F 23 °F (2002)
Degree Days  
Heating Degree Days 16    
Moisture  
Dew Point 50 °F    
Average Humidity 98    
Maximum Humidity 100    
Minimum Humidity 87    
Precipitation  
Precipitation 0.12 in - - ()
Sea Level Pressure  
Sea Level Pressure 29.99 in    
Wind  
Wind Speed 12 mph (WSW)    
Max Wind Speed 23 mph    
Max Gust Speed 31 mph    
Visibility 9 miles    
Events Rain    
Averages and records for this station are not official NWS values.
T = Trace of Precipitation, MM = Missing Value Source: NWS Daily Summary

Daily Weather History Graph

Daily Weather History Graph

Search for Another Location

Airport or City:

Trip Planner

Search our weather history database for the weather conditions in past years. The results will help you decide how hot, cold, wet, or windy it might be!

Date:

Astronomy

Mar. 05, 2013 Rise Set
Actual Time 6:17 AM CST 5:53 PM CST
Civil Twilight 5:52 AM CST 6:18 PM CST
Nautical Twilight 5:23 AM CST 6:47 PM CST
Astronomical Twilight 4:54 AM CST 7:16 PM CST
Moon 1:17 AM CST (3/5) 11:45 AM CST (3/5)
Length of Visible Light 12h 26m
Length of Day
11h 36m
Last Quarter, 40% of the Moon is Illuminated
Mar 5
Last Quarter
Mar 11
New
Mar 19
First Quarter
Mar 27
Full
Apr 2
Last Quarter

Hourly Weather History & Observations

Time (CST) Temp. Windchill Dew Point Humidity Pressure Visibility Wind Dir Wind Speed Gust Speed Precip Events Conditions
12:15 AM 57.2 °F - 57.2 °F 100% 29.90 in 10.0 mi South 12.7 mph 20.7 mph N/A   Clear
12:35 AM 57.2 °F - 57.2 °F 100% 29.90 in 10.0 mi South 12.7 mph 20.7 mph N/A   Partly Cloudy
12:55 AM 57.2 °F - 55.4 °F 94% 29.91 in 10.0 mi South 11.5 mph 20.7 mph N/A   Clear
1:15 AM 57.2 °F - 57.2 °F 100% 29.90 in 10.0 mi South 13.8 mph 19.6 mph N/A   Scattered Clouds
1:35 AM 57.2 °F - 57.2 °F 100% 29.90 in 10.0 mi South 15.0 mph 19.6 mph N/A   Mostly Cloudy
1:55 AM 57.2 °F - 57.2 °F 100% 29.90 in 10.0 mi South 15.0 mph 18.4 mph N/A   Mostly Cloudy
2:15 AM 57.2 °F - 57.2 °F 100% 29.90 in 10.0 mi South 12.7 mph 20.7 mph N/A   Mostly Cloudy
2:35 AM 57.2 °F - 57.2 °F 100% 29.90 in 10.0 mi South 10.4 mph - N/A   Overcast
2:55 AM 57.2 °F - 57.2 °F 100% 29.90 in 10.0 mi South 10.4 mph - N/A   Overcast
4:15 AM 57.2 °F - 57.2 °F 100% 29.91 in 10.0 mi South 9.2 mph - N/A   Overcast
4:35 AM 57.2 °F - 57.2 °F 100% 29.90 in 10.0 mi South 9.2 mph - N/A   Mostly Cloudy
4:55 AM 57.2 °F - 57.2 °F 100% 29.91 in 10.0 mi South 9.2 mph - N/A   Overcast
5:15 AM 57.2 °F - 57.2 °F 100% 29.91 in 10.0 mi South 10.4 mph - N/A   Mostly Cloudy
5:35 AM 57.2 °F - 57.2 °F 100% 29.91 in 10.0 mi SSE 10.4 mph - N/A   Mostly Cloudy
7:15 AM 57.2 °F - 57.2 °F 100% 29.88 in 8.0 mi South 13.8 mph 19.6 mph N/A   Overcast
7:35 AM 57.2 °F - 57.2 °F 100% 29.87 in 6.0 mi South 13.8 mph 23.0 mph N/A   Overcast
7:55 AM 57.2 °F - 57.2 °F 100% 29.87 in 7.0 mi South 15.0 mph 19.6 mph N/A   Overcast
8:15 AM 57.2 °F - 57.2 °F 100% 29.86 in 8.0 mi South 12.7 mph - N/A   Overcast
8:35 AM 59.0 °F - 59.0 °F 100% 29.87 in 8.0 mi South 11.5 mph 18.4 mph N/A   Overcast
8:55 AM 60.8 °F - 59.0 °F 94% 29.86 in 8.0 mi South 13.8 mph 19.6 mph N/A   Overcast
9:15 AM 60.8 °F - 59.0 °F 94% 29.85 in 7.0 mi SSW 12.7 mph 19.6 mph N/A   Overcast
9:35 AM 60.8 °F - 60.8 °F 100% 29.84 in 7.0 mi SSW 13.8 mph - N/A   Overcast
9:55 AM 60.8 °F - 59.0 °F 94% 29.82 in 1.0 mi South 12.7 mph 17.3 mph N/A   Overcast
10:15 AM 62.6 °F - 62.6 °F 100% 29.82 in 8.0 mi South 12.7 mph - N/A   Overcast
10:35 AM 62.6 °F - 62.6 °F 100% 29.80 in 8.0 mi South 10.4 mph 18.4 mph N/A   Overcast
10:55 AM 62.6 °F - 62.6 °F 100% 29.79 in 7.0 mi South 10.4 mph - N/A   Overcast
11:15 AM 62.6 °F - 62.6 °F 100% 29.81 in 1.2 mi SW 19.6 mph 26.5 mph 0.03 in Rain Heavy Rain
11:35 AM 55.4 °F - 55.4 °F 100% 29.88 in 4.0 mi NW 16.1 mph 25.3 mph 0.11 in   Overcast
11:55 AM 51.8 °F - 51.8 °F 100% 29.90 in 5.0 mi WNW 12.7 mph 24.2 mph 0.12 in   Overcast
12:15 PM 51.8 °F - 51.8 °F 100% 29.92 in 9.0 mi NW 17.3 mph 29.9 mph N/A   Overcast
12:35 PM 50.0 °F - 50.0 °F 100% 29.94 in 8.0 mi WNW 20.7 mph 27.6 mph N/A   Overcast
12:55 PM 48.2 °F - 48.2 °F 100% 29.97 in 7.0 mi WNW 12.7 mph 23.0 mph N/A   Overcast
1:15 PM 46.4 °F 39.2 °F 46.4 °F 100% 29.98 in 8.0 mi WNW 18.4 mph 24.2 mph N/A   Overcast
1:35 PM 46.4 °F 38.3 °F 46.4 °F 100% 29.99 in 9.0 mi NW 23.0 mph 31.1 mph N/A   Overcast
1:55 PM 46.4 °F 38.5 °F 46.4 °F 100% 30.01 in 10.0 mi WNW 21.9 mph 31.1 mph N/A   Overcast
2:15 PM 46.4 °F 41.1 °F 46.4 °F 100% 30.01 in 9.0 mi NW 11.5 mph 17.3 mph N/A   Overcast
2:35 PM 46.4 °F 39.8 °F 46.4 °F 100% 30.02 in 10.0 mi NNW 16.1 mph 21.9 mph N/A   Overcast
2:55 PM 46.4 °F 40.4 °F 46.4 °F 100% 30.04 in 9.0 mi NW 13.8 mph 19.6 mph N/A   Overcast
3:15 PM 46.4 °F 40.4 °F 46.4 °F 100% 30.05 in 9.0 mi WNW 13.8 mph 17.3 mph N/A   Overcast
3:35 PM 46.4 °F 40.7 °F 46.4 °F 100% 30.06 in 10.0 mi NW 12.7 mph 19.6 mph N/A   Overcast
3:55 PM 46.4 °F 41.9 °F 46.4 °F 100% 30.06 in 9.0 mi NW 9.2 mph 21.9 mph N/A   Overcast
4:15 PM 48.2 °F - 48.2 °F 100% 30.06 in 10.0 mi WNW 11.5 mph 16.1 mph N/A   Mostly Cloudy
4:35 PM 48.2 °F - 46.4 °F 93% 30.07 in 10.0 mi WNW 15.0 mph 20.7 mph N/A   Partly Cloudy
4:55 PM 48.2 °F - 48.2 °F 100% 30.07 in 10.0 mi NW 6.9 mph - N/A   Partly Cloudy
5:15 PM 48.2 °F - 46.4 °F 93% 30.08 in 10.0 mi NW 6.9 mph - N/A   Partly Cloudy
5:35 PM 46.4 °F 42.4 °F 46.4 °F 100% 30.08 in 10.0 mi NW 8.1 mph - N/A   Clear
5:55 PM 46.4 °F 43.5 °F 44.6 °F 93% 30.09 in 10.0 mi WNW 5.8 mph - N/A   Clear
6:15 PM 44.6 °F - 42.8 °F 93% 30.08 in 9.0 mi Calm Calm - N/A   Clear
6:35 PM 42.8 °F - 41.0 °F 93% 30.09 in 10.0 mi Calm Calm - N/A   Clear
6:55 PM 39.2 °F - 39.2 °F 100% 30.10 in 10.0 mi Calm Calm - N/A   Clear
7:15 PM 37.4 °F - 37.4 °F 100% 30.10 in 10.0 mi Calm Calm - N/A   Clear
7:35 PM 37.4 °F - 37.4 °F 100% 30.10 in 10.0 mi Calm Calm - N/A   Clear
7:55 PM 35.6 °F - 35.6 °F 100% 30.11 in 10.0 mi Calm Calm - N/A   Clear
8:15 PM 37.4 °F 31.4 °F 37.4 °F 100% 30.12 in 10.0 mi NW 8.1 mph - N/A   Clear
8:35 PM 42.8 °F 39.3 °F 42.8 °F 100% 30.12 in 10.0 mi NW 5.8 mph - N/A   Clear
8:55 PM 42.8 °F 40.1 °F 42.8 °F 100% 30.12 in 10.0 mi WNW 4.6 mph - N/A   Clear
9:15 PM 41.0 °F 36.4 °F 41.0 °F 100% 30.13 in 10.0 mi NW 6.9 mph - N/A   Clear
9:35 PM 41.0 °F 37.1 °F 39.2 °F 93% 30.13 in 10.0 mi NW 5.8 mph - N/A   Clear
9:55 PM 39.2 °F 35.0 °F 37.4 °F 93% 30.14 in 10.0 mi NW 5.8 mph - N/A   Clear
10:15 PM 39.2 °F 35.0 °F 37.4 °F 93% 30.14 in 10.0 mi NW 5.8 mph - N/A   Clear
10:35 PM 39.2 °F 35.0 °F 37.4 °F 93% 30.14 in 10.0 mi WNW 5.8 mph - N/A   Clear
10:55 PM 39.2 °F 33.0 °F 37.4 °F 93% 30.14 in 10.0 mi NW 9.2 mph - N/A   Clear
11:15 PM 41.0 °F 33.5 °F 37.4 °F 87% 30.15 in 10.0 mi NW 13.8 mph 19.6 mph N/A   Clear
11:35 PM 41.0 °F 33.1 °F 37.4 °F 87% 30.15 in 10.0 mi NW 15.0 mph 20.7 mph N/A   Clear
11:55 PM 41.0 °F 35.2 °F 37.4 °F 87% 30.16 in 10.0 mi NW 9.2 mph 18.4 mph N/A   Clear